Home   Weather   Los Angeles   Past weeks

Flag for USA Past Weather in Los Angeles, California, USA — Yesterday and Last 2 Weeks

Now
72 °F

Scattered clouds.


Feels Like: 77 °F
Forecast: 58 / 74 °F
Wind: 3 mph from North

Location: Los Angeles / USC Campus Downtown

Current Time: Apr 24, 2017 at 12:25:23 pm

Latest Report: Apr 24, 2017 at 11:47 am


Visibility: 10 mi

Pressure: 29.93 "Hg

Humidity: 55%

Dew Point: 55 °F

Location of Los AngelesLocation

Past Weather in Los Angeles — Graph

°F

Los Angeles Temperature Yesterday

Maximum temperature yesterday: 80 °F (at 11:47 am)
Minimum temperature yesterday: 61 °F (at 11:47 pm)
Average temperature yesterday: 67 °F

High & Low Weather Summary for the Past Weeks

 TemperatureHumidityPressure
High90 °F (Apr 21, 12:47 pm)90% (Apr 13, 1:47 am)30.12 "Hg (Apr 13, 1:47 am)
Low54 °F (Apr 10, 6:47 am)17% (Apr 21, 12:47 pm)29.81 "Hg (Apr 21, 6:47 pm)
Average66 °F59%29.98 "Hg
* Reported Apr 9 10:47 am — Apr 24 10:52 am, Los Angeles, Weather by CustomWeather, © 2017

Note: Actual official high and low records may vary slightly from our data, if they occured in-between our weather recording intervals... More about our weather records

Advertising

Los Angeles Weather History for the Previous 24 Hours

Scroll right to see more
 ConditionsComfort  
Time TempWeatherWind HumidityBarometerVisibility
10:52 am
Mon, Apr 24
70 °FPartly sunny.No wind57%29.94 "Hg7 mi
10:47 am69 °FScattered clouds.3 mph59%29.93 "Hg7 mi
10:06 am68 °FScattered clouds.3 mph59%29.94 "Hg10 mi
9:34 am66 °FScattered clouds.3 mph65%29.94 "Hg9 mi
8:47 am65 °FScattered clouds.No wind70%29.92 "Hg9 mi
7:47 am64 °FSunny.No wind73%29.90 "Hg9 mi
6:47 am61 °FSunny.No wind75%29.89 "Hg9 mi
5:47 am61 °FPassing clouds.No wind72%29.87 "Hg10 mi
5:33 am61 °FPassing clouds.No wind72%29.87 "Hg10 mi
5:09 am60 °FPassing clouds.No wind75%29.87 "Hg10 mi
4:47 am61 °FPassing clouds.No wind72%29.87 "Hg10 mi
3:47 am61 °FOvercast.No wind78%29.86 "Hg10 mi
2:47 am60 °FPassing clouds.No wind72%29.85 "Hg10 mi
1:47 am59 °FClear.No wind78%29.87 "Hg10 mi
12:47 am60 °FClear.No wind75%29.85 "Hg10 mi
11:47 pm
Sun, Apr 23
61 °FClear.No wind67%29.87 "Hg10 mi
10:47 pm62 °FClear.3 mph70%29.86 "Hg10 mi
9:47 pm62 °FClear.No wind70%29.86 "Hg10 mi
8:47 pm62 °FClear.No wind67%29.85 "Hg10 mi
7:47 pm63 °FClear.5 mph63%29.82 "Hg10 mi
6:47 pm66 °FSunny.3 mph59%29.82 "Hg10 mi
5:47 pm71 °FSunny.No wind51%29.81 "Hg10 mi
4:47 pm72 °FSunny.6 mph52%29.82 "Hg10 mi
3:47 pm72 °FSunny.No wind55%29.82 "Hg10 mi
2:47 pm72 °FSunny.7 mph55%29.84 "Hg10 mi
1:47 pm74 °FSunny.5 mph56%29.84 "Hg10 mi
12:47 pm77 °FSunny.5 mph48%29.84 "Hg10 mi
Weather by CustomWeather, © 2017

See weather overviewHow to use our weather pages